DW1736 Weather Reports


time (UTC)temp
F
wind
direction
speed
knots
gust
knots
rain 1hr
in
rain 24hr
in
rain mn
in
humidity
%
barometer
mb
20260505100525 61 0.0 1.7 0.00 0.00 0.00 75 1012.8
20260505095538 61 0.0 1.7 0.00 0.00 0.00 75 1012.8
20260505094537 61 0.0 1.7 0.00 0.00 0.00 75 1012.7
20260505093537 61 0.0 1.7 0.00 0.00 0.00 75 1012.6
20260505092538 61 0.0 2.6 0.00 0.00 0.00 75 1012.6
20260505091525 61 0.0 0.9 0.00 0.00 0.00 74 1012.5
20260505090537 61 0.0 1.7 0.00 0.00 0.00 74 1012.4
20260505085525 61 0.0 1.7 0.00 0.00 0.00 74 1012.5
20260505084538 62 0.0 0.9 0.00 0.00 0.00 73 1012.6
20260505083538 62 0.0 2.6 0.00 0.00 0.00 72 1012.6
20260505082557 62 0.0 1.7 0.00 0.00 0.00 72 1012.5
20260505081557 62 0.0 1.7 0.00 0.00 0.00 72 1012.6
20260505080525 62 0.0 1.7 0.00 0.00 0.00 72 1012.4
20260505075537 62 0.0 4.3 0.00 0.00 0.00 72 1012.3
20260505074537 62 0.0 3.5 0.00 0.00 0.00 71 1012.3
20260505073557 62 0.0 2.6 0.00 0.00 0.00 71 1012.3
20260505072537 63 0.0 1.7 0.00 0.00 0.00 71 1012.3
20260505071537 63 0.0 1.7 0.00 0.00 0.00 70 1012.1
20260505070537 63 0.0 1.7 0.00 0.00 0.00 70 1012.1
20260505065525 63 0.0 0.9 0.00 0.00 0.00 70 1011.9
20260505064537 63 0.0 1.7 0.00 0.00 0.00 70 1011.9
20260505063600 64 0.0 0.9 0.00 0.00 0.00 70 1012.0
20260505062546 64 0.0 3.5 0.00 0.00 0.00 70 1012.1
20260505061539 64 225 0.9 5.2 0.00 0.00 0.00 70 1012.1
20260505060526 64 0.0 1.7 0.00 0.00 0.00 70 1012.1
20260505055539 64 0.0 1.7 0.00 0.00 0.00 70 1012.1
20260505054539 64 0.0 10.4 0.00 0.00 0.00 70 1012.0
20260505053539 64 0.0 1.7 0.00 0.00 0.00 69 1012.2
20260505052539 64 0.0 6.1 0.00 0.00 0.00 69 1012.2
20260505051539 65 225 0.9 4.3 0.00 0.00 0.00 68 1012.1
20260505050528 65 0.0 1.7 0.00 0.00 0.00 68 1012.1
20260505041540 65 0.0 6.1 0.00 0.00 0.00 66 1012.1
20260505040600 65 0.0 2.6 0.00 0.00 0.00 64 1012.0
20260505035526 65 0.0 0.9 0.00 0.00 0.00 63 1012.0
20260505034539 64 0.0 0.9 0.00 0.00 0.00 62 1012.0
20260505033559 64 0.0 0.0 0.00 0.00 0.00 60 1012.0
20260505032538 64 0.0 0.9 0.00 0.00 0.00 58 1012.0
20260505031526 63 0.0 0.0 0.00 0.00 0.00 58 1012.0
20260505030526 63 0.0 0.0 0.00 0.00 0.00 58 1011.9
20260505025539 63 0.0 0.0 0.00 0.00 0.00 59 1011.9
20260505024526 63 0.0 0.0 0.00 0.00 0.00 59 1011.8
20260505023538 63 0.0 0.0 0.00 0.00 0.00 58 1011.7
20260505022539 64 0.0 0.0 0.00 0.00 0.00 57 1011.6
20260505021538 65 0.0 0.0 0.00 0.00 0.00 56 1011.5
20260505020526 66 0.0 0.0 0.00 0.00 0.00 55 1011.5
20260505015525 66 0.0 0.0 0.00 0.00 0.00 54 1011.4
20260505014538 66 0.0 0.0 0.00 0.00 0.00 53 1011.2
20260505013537 65 0.0 0.0 0.00 0.00 0.00 54 1011.0
20260505012538 65 0.0 0.0 0.00 0.00 0.00 53 1011.0
20260505011538 65 0.0 0.0 0.00 0.00 0.00 53 1011.1
20260505010525 66 0.0 0.0 0.00 0.00 0.00 51 1011.1
20260505005538 66 0.0 0.0 0.00 0.00 0.00 48 1011.0
20260505004525 66 0.0 0.0 0.00 0.00 0.00 46 1011.0
20260505003538 67 0.0 0.0 0.00 0.00 0.00 45 1010.9
20260505002538 68 0.0 0.0 0.00 0.00 0.00 43 1010.8
20260505001538 68 0.0 0.0 0.00 0.00 0.00 42 1010.6
20260505000538 70 0.0 0.0 0.00 0.00 0.00 41 1010.6
20260504235525 71 0.0 0.0 0.00 0.00 0.00 38 1010.6
20260504234525 73 0.0 0.0 0.00 0.00 0.00 35 1010.5
20260504233525 73 0.0 1.7 0.00 0.00 0.00 33 1010.5
20260504232538 74 0.0 0.0 0.00 0.00 0.00 33 1010.4
20260504231537 74 0.0 0.0 0.00 0.00 0.00 32 1010.4
20260504230537 75 0.0 0.0 0.00 0.00 0.00 30 1010.3
20260504225525 77 0.0 0.9 0.00 0.00 0.00 29 1010.1
20260504224545 78 0.0 2.6 0.00 0.00 0.00 29 1010.2
20260504223537 79 0.0 1.7 0.00 0.00 0.00 28 1010.3
20260504222558 79 0.0 0.0 0.00 0.00 0.00 29 1010.3
20260504221538 79 0.0 0.9 0.00 0.00 0.00 31 1010.4
20260504220537 79 0.0 1.7 0.00 0.00 0.00 30 1010.4
20260504215525 79 0.0 1.7 0.00 0.00 0.00 30 1010.4
20260504214537 79 0.0 1.7 0.00 0.00 0.00 29 1010.4
20260504213544 79 270 0.9 1.7 0.00 0.00 0.00 30 1010.5
20260504212537 79 0.0 1.7 0.00 0.00 0.00 29 1010.6
20260504211559 79 270 0.9 7.8 0.00 0.00 0.00 28 1010.6
20260504210537 79 248 0.9 3.5 0.00 0.00 0.00 27 1010.7
20260504205539 78 248 0.9 6.1 0.00 0.00 0.00 28 1010.7
20260504204539 78 248 0.9 3.5 0.00 0.00 0.00 27 1010.8
20260504203539 77 270 0.9 2.6 0.00 0.00 0.00 28 1010.9
20260504202601 77 270 0.9 3.5 0.00 0.00 0.00 27 1010.8
20260504201527 78 270 0.9 2.6 0.00 0.00 0.00 28 1011.0
20260504200539 78 0.0 2.6 0.00 0.00 0.00 27 1011.0
20260504195539 78 248 0.9 3.5 0.00 0.00 0.00 27 1011.3
20260504194539 78 248 0.9 3.5 0.00 0.00 0.00 26 1011.3
20260504193539 77 270 0.9 9.6 0.00 0.00 0.00 28 1011.5
20260504192539 77 0.0 1.7 0.00 0.00 0.00 27 1011.6
20260504191559 76 0.0 2.6 0.00 0.00 0.00 27 1011.6
20260504190526 76 0.0 1.7 0.00 0.00 0.00 29 1011.8
20260504185526 77 0.0 1.7 0.00 0.00 0.00 27 1011.8
20260504184539 79 270 0.9 5.2 0.00 0.00 0.00 27 1012.0
20260504183559 79 248 0.9 5.2 0.00 0.00 0.00 27 1012.1
20260504182619 78 0.0 1.7 0.00 0.00 0.00 27 1012.2
20260504181539 77 248 0.9 7.8 0.00 0.00 0.00 26 1012.3
20260504180539 77 270 0.9 4.3 0.00 0.00 0.00 27 1012.5
20260504175526 77 225 0.9 5.2 0.00 0.00 0.00 26 1012.5
20260504174526 76 225 0.9 3.5 0.00 0.00 0.00 25 1012.6
20260504173639 75 248 0.9 7.8 0.00 0.00 0.00 28 1012.7
20260504172539 76 248 1.7 13.9 0.00 0.00 0.00 26 1012.8
20260504171539 75 270 0.9 6.1 0.00 0.00 0.00 27 1012.9
20260504170526 75 270 1.7 5.2 0.00 0.00 0.00 31 1013.0
20260504150526 69 248 0.9 5.2 0.00 0.00 0.00 43 1014.1
20260504140538 64 0.0 1.7 0.00 0.00 0.00 52 1014.5
20260504130538 60 270 0.9 5.2 0.00 0.00 0.00 60 1014.9
20260504110538 52 0.0 0.0 0.00 0.00 0.00 77 1015.3